TimeEST,TemperatureF,Dew PointF,Humidity,Sea Level PressureIn,VisibilityMPH,Wind Direction,Wind SpeedMPH,Gust SpeedMPH,PrecipitationIn,Events,Conditions,WindDirDegrees,DateUTC
12:51 AM,32.0,23.0,69,30.08,10.0,Calm,Calm,-,N/A,,Overcast,0,2013-01-16 05:51:00
1:51 AM,32.0,23.0,69,30.04,10.0,NE,3.5,-,N/A,,Overcast,50,2013-01-16 06:51:00
2:42 AM,32.0,23.0,69,30.04,10.0,Calm,Calm,-,N/A,,Overcast,0,2013-01-16 07:42:00
2:51 AM,33.1,23.0,66,30.06,10.0,Calm,Calm,-,N/A,,Overcast,0,2013-01-16 07:51:00
3:51 AM,32.0,23.0,69,30.04,10.0,North,5.8,-,N/A,,Overcast,360,2013-01-16 08:51:00
4:51 AM,32.0,24.1,73,30.00,10.0,North,4.6,-,N/A,,Overcast,350,2013-01-16 09:51:00
5:51 AM,32.0,23.0,69,29.99,10.0,North,4.6,-,N/A,,Overcast,360,2013-01-16 10:51:00
6:28 AM,32.0,23.0,69,29.97,10.0,NNW,4.6,-,N/A,,Overcast,330,2013-01-16 11:28:00
6:51 AM,33.1,24.1,70,29.99,10.0,North,4.6,-,N/A,,Overcast,350,2013-01-16 11:51:00
7:18 AM,33.8,24.8,70,29.97,10.0,NW,3.5,-,N/A,,Overcast,320,2013-01-16 12:18:00
7:51 AM,33.1,24.1,70,29.99,10.0,NW,4.6,-,N/A,,Overcast,320,2013-01-16 12:51:00
8:51 AM,33.1,25.0,72,30.00,8.0,Calm,Calm,-,N/A,,Overcast,0,2013-01-16 13:51:00
9:51 AM,33.1,25.0,72,30.02,8.0,SSW,4.6,-,N/A,,Overcast,210,2013-01-16 14:51:00
10:51 AM,33.1,26.1,75,30.02,7.0,WSW,9.2,-,N/A,,Overcast,250,2013-01-16 15:51:00
11:51 AM,34.0,26.1,73,30.01,8.0,West,8.1,-,N/A,,Overcast,270,2013-01-16 16:51:00
12:51 PM,35.1,27.0,72,29.97,8.0,SW,9.2,-,N/A,,Overcast,230,2013-01-16 17:51:00
1:51 PM,36.0,26.1,67,29.96,10.0,West,9.2,-,N/A,,Overcast,280,2013-01-16 18:51:00
2:51 PM,37.0,25.0,62,29.98,10.0,West,11.5,-,N/A,,Overcast,260,2013-01-16 19:51:00
3:51 PM,37.0,26.1,65,29.98,10.0,SSW,9.2,-,N/A,,Overcast,210,2013-01-16 20:51:00
4:51 PM,36.0,26.1,67,30.00,10.0,SSW,8.1,-,N/A,,Overcast,210,2013-01-16 21:51:00
5:51 PM,35.1,27.0,72,30.02,10.0,SSW,15.0,-,N/A,,Overcast,210,2013-01-16 22:51:00
6:51 PM,34.0,28.0,79,30.04,8.0,SSW,10.4,-,N/A,,Overcast,200,2013-01-16 23:51:00
7:41 PM,33.8,28.4,81,30.02,6.0,SSW,11.5,-,N/A,,Overcast,210,2013-01-17 00:41:00
7:51 PM,33.1,28.9,85,30.05,6.0,SSW,15.0,-,N/A,,Overcast,210,2013-01-17 00:51:00
8:51 PM,33.1,28.9,85,30.05,6.0,SSW,10.4,-,N/A,,Overcast,210,2013-01-17 01:51:00
9:51 PM,32.0,28.9,88,30.05,6.0,SW,10.4,-,N/A,,Overcast,220,2013-01-17 02:51:00
10:51 PM,33.1,28.0,82,30.05,7.0,SW,10.4,-,N/A,,Overcast,220,2013-01-17 03:51:00
10:58 PM,33.8,28.4,81,30.03,7.0,SSW,10.4,-,N/A,,Overcast,210,2013-01-17 03:58:00
11:51 PM,33.1,28.0,82,30.07,7.0,WSW,9.2,-,N/A,,Overcast,240,2013-01-17 04:51:00